Location: Newark
(40.2667°N, 44.5667°E)
Time: 17:49:51
(UTC+00:00)

ISS - Visible Passes

Search period start: 28 September 2020 00:00
Search period end: 08 October 2020 00:00
Orbit: 419 x 421 km, 51.6° (Epoch: 29 September)

Date Brightness Start Highest point End Pass type
(mag) Time Alt. Az. Time Alt. Az. Time Alt. Az.
28 Sep -1.3 16:44:38 10° NNW 16:46:11 15° N 16:46:11 15° N visible
29 Sep -1.3 15:57:30 10° NNW 15:59:16 13° N 16:00:41 11° NE visible
30 Sep -1.2 15:10:15 10° NNW 15:11:43 12° N 15:13:12 10° NNE visible
30 Sep -1.5 16:46:34 10° NW 16:48:11 20° N 16:48:11 20° N visible
01 Oct -1.9 15:59:28 10° NNW 16:02:00 19° NNE 16:02:44 18° NE visible
02 Oct -1.6 15:12:21 10° NNW 15:14:29 16° NNE 15:16:38 10° NE visible
02 Oct -1.8 16:48:33 10° NW 16:50:18 27° NW 16:50:18 27° NW visible
03 Oct -3.0 16:01:21 10° NW 16:04:30 36° NNE 16:04:57 34° NE visible
04 Oct -2.4 15:14:11 10° NW 15:17:04 26° NNE 15:19:40 12° E visible
04 Oct -1.7 16:50:47 10° WNW 16:52:39 28° W 16:52:39 28° W visible
05 Oct -3.8 16:03:22 10° NW 16:06:45 82° SW 16:07:28 52° SE visible
06 Oct -3.6 15:16:04 10° NW 15:19:25 58° NE 15:22:23 12° ESE visible
06 Oct -0.9 16:53:51 10° W 16:55:23 15° WSW 16:55:23 15° WSW visible
07 Oct -1.8 16:05:52 10° WNW 16:08:43 26° SW 16:10:28 17° S visible
